Погода в Рожняве

Словакия     48°39′44″N   20°31′57″E
темп.,
°C
ветер,
м/с
пор.,
м/с
влажн.,
%
обл.,
%
осадки,
мм/ч
давл.,
гПа
погр.,
м
18 мая, ср
ср1823:00+8ссв41093100 0.0 1020436
02:00+6ссв38956 0.0 1022411
05:00+4ссв35972 0.0 1024154
08:00+6ссв410590 0.0 1027902
11:00+11ссв47340 0.0 10271413
14:00+15ссв46280 0.0 10271650
17:00+15ссв35300 0.0 10261185
20:00+8с11610 0.0 102811
19 мая, чт
чт1923:00+5с22680 0.0 103114
02:00+4ссз11715 0.0 103113
05:00+4ссз11745 0.0 103012
08:00+12юз11535 0.0 1029336
11:00+16ююз323911 0.0 10281103
14:00+19ююз443726 0.0 10271482
17:00+17ююз454511 0.0 1026884
20:00+11ююз117819 0.0 102716
20 мая, пт
пт2023:00+9юз118091 0.0 102717
02:00+7з1183100 0.0 102710
05:00+7зюз1178100 0.0 102611
08:00+13ююз2257100 0.0 1026246
11:00+17ююз334393 0.0 1024717
14:00+20ююз3344100 0.0 1023939
17:00+20ююз345581 0.0 1021795
20:00+14юз118913 0.0 102115
21 мая, сб
сб2123:00+12сз119398 0.0 102010
02:00+12зюз1195100 0.0 101812
05:00+11юз119636 0.0 101625
08:00+17ююз3578100 0.0 1014286
11:00+17ююз3386100 0.9 1014365
14:00+24зсз712395 1.4 10122294
17:00+20зсз5833100 0.0 10121740
20:00+13зсз410563 0.0 1015651
22 мая, вс
вс2223:00+9з25740 0.0 1016106
02:00+7сз228488 0.0 101517
05:00+10зсз1171100 0.0 101422
08:00+11ссз2367100 0.1 1014841
11:00+13ссз255878 0.2 10141316
14:00+15ссз364582 0.6 10132121
17:00+14с365169 0.1 10131669
20:00+8ссв238349 0.1 1015102